Tracking 25405 objects as of 26-Jan-2022
HD Live streaming from Space Station
objects crossing your sky now

STARLINK-1889

Track STARLINK-1889 now!
10-day predictions
STARLINK-1889 is classified as:


NORAD ID: 47172
Int'l Code: 2020-088BC
Perigee: 348.3 km
Apogee: 349.3 km
Inclination: 53.0 °
Period: 91.4 minutes
Semi major axis: 6719 km
RCS: Unknown
Launch date: November 25, 2020
Source: United States (US)
Launch site: AIR FORCE EASTERN TEST RANGE (AFETR)
aabbcc
Your satellite tracking list
Your tracking list is empty




NASA's NSSDC Master Catalog

Two Line Element Set (TLE):
1 47172U 20088BC  22025.65430123  .00078136  00000-0  49139-3 0  9998
2 47172  53.0487 163.1201 0000745 145.3034 214.8034 15.76051174 65853
Source of the keplerian elements: AFSPC